User: anonymous   Login
Location: Unspecified
(0.0000°N, 0.0000°E)
Time: 11:43:39
(UTC+01:00)
Language:

ISS - Orbit

View from above orbital plane
View from above orbital plane
View from above satellite
View from above satellite

Ground track
Ground track

The orbit data is extracted from the following two-line orbital elements,

1 25544U 98067A   14303.84410568  .00021771  00000-0  37755-3 0  3281
2 25544 051.6437 147.1215 0003495 343.4607 092.7870 15.50800946912370
Epoch (UTC): 30 October 2014 20:15:30
Eccentricity: 0.0003495
inclination: 51.6437°
perigee height: 412 km
apogee height: 417 km
right ascension of ascending node: 147.1215°
argument of perigee: 343.4607°
revolutions per day: 15.50800946
mean anomaly at epoch: 92.7870°
orbit number at epoch: 91237

The dashed part of the orbit path shows where the satellite is in the earth's shadow,  

DLR